Powrót do katalogu

TYVAK-0173

AktywnyNaukaPO
NORAD 48892·PAYLOAD·🇦🇺 Australia

Wystrzelony Jun 30, 2021 z Cape Canaveral Space Force Station

Loading…

Następne Przeloty (najbliższe 24 godziny)

TLE

ŚwieżeSource: Space-Track

Epoka: Sep 14, 2026, 02:53 UTC

1 48892U 21059P   26257.12015216  .00001176  00000-0  15175-3 0  9995
2 48892  95.9995 311.3438 0011005  88.5089 271.7390 14.82115030281417

Śledź TYVAK-0173 w czasie rzeczywistym z AllMySat

Download on the App Store